Weather History for LFRN - April, 2013

Change the Weather History Date:

Saturday, April 27, 2013

  Actual Average Record
Temperature  
Mean Temperature 44 °F -  
Max Temperature 54 °F 63 °F 73 °F (2007)
Min Temperature 33 °F 47 °F 33 °F (2013)
Degree Days  
Heating Degree Days 22    
Moisture  
Dew Point 34 °F    
Average Humidity 71    
Maximum Humidity 93    
Minimum Humidity 38    
Precipitation  
Precipitation 0.00 in - - ()
Sea Level Pressure  
Sea Level Pressure 29.95 in    
Wind  
Wind Speed 8 mph ()    
Max Wind Speed 21 mph    
Max Gust Speed -    
Visibility 6.3 miles    
Events      
Averages and records for this station are not official NWS values.
T = Trace of Precipitation, MM = Missing Value Source: Averaged Metar Reports

Daily Weather History Graph

Daily Weather History Graph

Search for Another Location

Airport or City:

Trip Planner

Search our weather history database for the weather conditions in past years. The results will help you decide how hot, cold, wet, or windy it might be!

Date:

Astronomy

Apr. 27, 2013 Rise Set
Actual Time 6:55 AM CEST 9:14 PM CEST
Civil Twilight 6:21 AM CEST 9:49 PM CEST
Nautical Twilight 5:38 AM CEST 10:32 PM CEST
Astronomical Twilight 4:49 AM CEST 11:21 PM CEST
Moon 11:36 PM CEST (4/27) 7:54 AM CEST (4/27)
Length of Visible Light 15h 27m
Length of Day
14h 19m
Waning Gibbous, 96% of the Moon is Illuminated
Apr 27
Waning Gibbous
May 2
Last Quarter
May 10
New
May 18
First Quarter
May 25
Full

Hourly Weather History & Observations

Time (CEST) Temp. Windchill Dew Point Humidity Pressure Visibility Wind Dir Wind Speed Gust Speed Precip Events Conditions
12:00 AM 39.2 °F 35.0 °F 33.8 °F 81% 30.01 in 6.2 mi West 5.8 mph - N/A   Unknown
12:30 AM 37.4 °F 32.1 °F 33.8 °F 87% 30.01 in 6.2 mi WNW 6.9 mph - N/A   Unknown
1:00 AM 37.4 °F 32.1 °F 33.8 °F 87% 30.01 in 6.2 mi WNW 6.9 mph - N/A   Unknown
1:30 AM 37.4 °F 31.4 °F 33.8 °F 87% 29.98 in 6.2 mi WNW 8.1 mph - N/A   Unknown
2:00 AM 36 °F - 34 °F 87% 30.00 in 28 mi WNW 6.9 mph - -   Clear
2:00 AM 35.6 °F 29.9 °F 33.8 °F 93% 29.98 in 6.2 mi WNW 6.9 mph - N/A   Unknown
2:30 AM 35.6 °F 30.7 °F 33.8 °F 93% 29.98 in 6.2 mi WNW 5.8 mph - N/A   Unknown
3:00 AM 35.6 °F 30.7 °F 33.8 °F 93% 29.98 in 6.2 mi WNW 5.8 mph - N/A   Unknown
3:30 AM 35.6 °F 29.9 °F 33.8 °F 93% 29.95 in 6.2 mi WNW 6.9 mph - N/A   Unknown
4:00 AM 35.6 °F 29.9 °F 32.0 °F 87% 29.95 in 6.2 mi WNW 6.9 mph - N/A   Unknown
4:30 AM 35.6 °F 30.7 °F 32.0 °F 87% 29.95 in 6.2 mi WNW 5.8 mph - N/A   Unknown
5:00 AM 35.6 °F 30.7 °F 33.8 °F 93% 29.95 in 6.2 mi WNW 5.8 mph - N/A   Unknown
5:30 AM 35.6 °F 31.7 °F 33.8 °F 93% 29.95 in 6.2 mi WNW 4.6 mph - N/A   Unknown
6:00 AM 35.6 °F 32.8 °F 32.0 °F 87% 29.92 in 6.2 mi West 3.5 mph - N/A   Unknown
6:30 AM 33.8 °F 28.6 °F 32.0 °F 93% 29.92 in 6.2 mi WNW 5.8 mph - N/A   Unknown
7:00 AM 33.8 °F 30.8 °F 32.0 °F 93% 29.92 in 6.2 mi West 3.5 mph - N/A   Unknown
7:30 AM 33.8 °F 28.6 °F 32.0 °F 93% 29.92 in 6.2 mi WNW 5.8 mph - N/A   Unknown
8:00 AM 36 °F - 34 °F 89% 29.95 in 12 mi WNW 5.8 mph - -   Clear
8:00 AM 35.6 °F 30.7 °F 33.8 °F 93% 29.92 in 6.2 mi WNW 5.8 mph - N/A   Unknown
8:30 AM 39.2 °F 34.2 °F 35.6 °F 87% 29.92 in 6.2 mi WNW 6.9 mph - N/A   Unknown
9:00 AM 42.8 °F 38.6 °F 37.4 °F 81% 29.92 in 6.2 mi NNW 6.9 mph - N/A   Unknown
9:30 AM 46.4 °F 42.4 °F 39.2 °F 76% 29.92 in 6.2 mi NW 8.1 mph - N/A   Partly Cloudy
10:00 AM 44.6 °F 39.7 °F 37.4 °F 76% 29.92 in 6.2 mi North 9.2 mph - N/A   Mostly Cloudy
10:30 AM 48.2 °F - 39.2 °F 71% 29.92 in 6.2 mi North 9.2 mph - N/A   Mostly Cloudy
11:00 AM 46.4 °F 40.4 °F 37.4 °F 71% 29.92 in 6.2 mi NNW 13.8 mph - N/A   Mostly Cloudy
11:30 AM 48.2 °F - 35.6 °F 62% 29.92 in 6.2 mi North 10.4 mph - N/A   Mostly Cloudy
12:00 PM 48.2 °F - 35.6 °F 62% 29.92 in 6.2 mi NNW 11.5 mph - N/A   Mostly Cloudy
12:30 PM 50.0 °F - 35.6 °F 58% 29.92 in 6.2 mi North 13.8 mph - N/A   Mostly Cloudy
1:00 PM 51.8 °F - 33.8 °F 50% 29.92 in 6.2 mi NNE 11.5 mph - N/A   Scattered Clouds
1:30 PM 51.8 °F - 33.8 °F 50% 29.92 in 6.2 mi North 15.0 mph - N/A   Scattered Clouds
2:00 PM 51 °F - 33 °F 38% 29.92 in 37 mi NNE 15.0 mph - -   Clear
2:00 PM 51.8 °F - 33.8 °F 50% 29.92 in 6.2 mi NNE 15.0 mph - N/A   Mostly Cloudy
2:30 PM 51.8 °F - 33.8 °F 50% 29.92 in 6.2 mi North 15.0 mph - N/A   Mostly Cloudy
3:00 PM 51.8 °F - 35.6 °F 54% 29.92 in 6.2 mi North 18.4 mph - N/A   Mostly Cloudy
3:30 PM 51.8 °F - 33.8 °F 50% 29.92 in 6.2 mi North 19.6 mph - N/A   Mostly Cloudy
4:00 PM 51.8 °F - 33.8 °F 50% 29.92 in 6.2 mi North 20.7 mph - N/A   Mostly Cloudy
4:30 PM 50.0 °F - 35.6 °F 58% 29.92 in 6.2 mi North 17.3 mph - N/A   Unknown
5:00 PM 51.8 °F - 33.8 °F 50% 29.92 in 6.2 mi North 16.1 mph - N/A   Scattered Clouds
5:30 PM 50.0 °F - 33.8 °F 54% 29.92 in 6.2 mi North 17.3 mph - N/A   Mostly Cloudy
6:00 PM 50.0 °F - 35.6 °F 58% 29.92 in 6.2 mi North 17.3 mph - N/A   Mostly Cloudy
6:30 PM 50.0 °F - 33.8 °F 54% 29.92 in 6.2 mi North 16.1 mph - N/A   Mostly Cloudy
7:00 PM 50.0 °F - 35.6 °F 58% 29.92 in 6.2 mi North 16.1 mph - N/A   Mostly Cloudy
7:30 PM 50.0 °F - 33.8 °F 54% 29.92 in 6.2 mi North 17.3 mph - N/A   Mostly Cloudy
8:00 PM 49 °F - 31 °F 38% 29.95 in 37 mi North 15.0 mph - -   Clear
8:00 PM 50.0 °F - 32.0 °F 50% 29.95 in 6.2 mi North 16.1 mph - N/A   Unknown
8:30 PM 48.2 °F - 32.0 °F 54% 29.95 in 6.2 mi North 11.5 mph - N/A   Unknown
9:00 PM 46.4 °F 42.4 °F 32.0 °F 57% 29.98 in 6.2 mi NNE 8.1 mph - N/A   Unknown
9:30 PM 44.6 °F 39.2 °F 32.0 °F 61% 29.98 in 6.2 mi NNE 10.4 mph - N/A   Unknown
10:00 PM 44.6 °F 39.7 °F 33.8 °F 66% 30.01 in 6.2 mi North 9.2 mph - N/A   Unknown
10:30 PM 42.8 °F 38.6 °F 33.8 °F 70% 30.01 in 6.2 mi North 6.9 mph - N/A   Unknown
11:00 PM 42.8 °F 38.6 °F 33.8 °F 70% 30.04 in 6.2 mi North 6.9 mph - N/A   Unknown
11:30 PM 42.8 °F 38.0 °F 33.8 °F 70% 30.04 in 6.2 mi North 8.1 mph - N/A   Unknown